TimeCDT,TemperatureF,Dew PointF,Humidity,Sea Level PressureIn,VisibilityMPH,Wind Direction,Wind SpeedMPH,Gust SpeedMPH,PrecipitationIn,Events,Conditions,WindDirDegrees,DateUTC
12:18 AM,64.4,60.8,88,29.79,10.0,Calm,Calm,-,N/A,,Mostly Cloudy,0,2014-03-28 05:18:00
12:53 AM,66.0,51.1,59,29.78,10.0,NNE,9.2,-,N/A,,Overcast,30,2014-03-28 05:53:00
1:53 AM,62.1,43.0,50,29.80,10.0,NNE,12.7,20.7,N/A,,Scattered Clouds,30,2014-03-28 06:53:00
2:53 AM,60.1,41.0,49,29.80,10.0,NNE,12.7,20.7,N/A,,Overcast,30,2014-03-28 07:53:00
3:53 AM,57.0,39.9,53,29.80,10.0,NE,6.9,18.4,N/A,,Mostly Cloudy,40,2014-03-28 08:53:00
4:53 AM,55.9,41.0,57,29.80,10.0,NNE,5.8,-,N/A,,Overcast,20,2014-03-28 09:53:00
5:53 AM,55.0,39.9,57,29.81,10.0,NE,5.8,-,N/A,,Overcast,40,2014-03-28 10:53:00
6:53 AM,54.0,39.9,59,29.82,10.0,NE,4.6,-,N/A,,Scattered Clouds,40,2014-03-28 11:53:00
7:53 AM,53.1,39.9,61,29.86,10.0,Calm,Calm,-,N/A,,Mostly Cloudy,0,2014-03-28 12:53:00
8:53 AM,52.0,39.9,63,29.87,10.0,North,9.2,-,N/A,,Mostly Cloudy,10,2014-03-28 13:53:00
9:53 AM,53.1,39.0,59,29.88,10.0,North,12.7,-,N/A,,Overcast,10,2014-03-28 14:53:00
10:53 AM,52.0,39.0,61,29.90,10.0,North,11.5,-,N/A,,Overcast,360,2014-03-28 15:53:00
11:53 AM,52.0,39.0,61,29.92,10.0,North,10.4,-,N/A,,Overcast,10,2014-03-28 16:53:00
12:53 PM,53.1,39.0,59,29.92,10.0,North,10.4,-,N/A,,Overcast,10,2014-03-28 17:53:00
1:53 PM,54.0,39.0,57,29.87,10.0,NE,10.4,16.1,N/A,,Overcast,40,2014-03-28 18:53:00
2:53 PM,54.0,39.9,59,29.87,10.0,North,18.4,-,N/A,,Overcast,10,2014-03-28 19:53:00
3:53 PM,57.0,41.0,55,29.86,10.0,NNE,10.4,19.6,N/A,,Overcast,30,2014-03-28 20:53:00
4:53 PM,57.0,41.0,55,29.90,10.0,North,13.8,-,N/A,,Overcast,360,2014-03-28 21:53:00
5:53 PM,53.1,39.9,61,29.93,10.0,North,16.1,-,N/A,,Overcast,10,2014-03-28 22:53:00
6:31 PM,53.6,41.0,62,29.93,10.0,NNE,11.5,-,N/A,,Overcast,20,2014-03-28 23:31:00
6:53 PM,53.1,42.1,66,29.93,10.0,NNE,11.5,18.4,N/A,,Mostly Cloudy,20,2014-03-28 23:53:00
7:53 PM,51.1,42.1,71,29.96,10.0,North,15.0,-,N/A,,Partly Cloudy,360,2014-03-29 00:53:00
8:53 PM,50.0,42.1,74,30.00,10.0,North,12.7,-,N/A,,Partly Cloudy,10,2014-03-29 01:53:00
9:53 PM,50.0,42.1,74,30.04,10.0,North,13.8,-,N/A,,Clear,360,2014-03-29 02:53:00
10:53 PM,50.0,39.9,68,30.06,10.0,North,12.7,-,N/A,,Partly Cloudy,360,2014-03-29 03:53:00
11:53 PM,48.0,39.0,71,30.10,10.0,North,8.1,-,N/A,,Scattered Clouds,10,2014-03-29 04:53:00